Location: Buchloe
(48.0161°N, 10.7316°E)
Time: 21:54:00
(UTC+02:00)

ISS - Visible Passes

Search period start: 16 May 2021 00:00
Search period end: 26 May 2021 00:00
Orbit: 417 x 422 km, 51.6° (Epoch: 16 May)

Date Brightness Start Highest point End Pass type
(mag) Time Alt. Az. Time Alt. Az. Time Alt. Az.
16 May -2.5 01:17:15 10° WNW 01:20:29 43° N 01:23:44 10° ENE visible
16 May -3.8 02:54:10 10° WNW 02:57:33 83° NNE 03:00:57 10° ESE visible
16 May -2.5 04:31:25 10° W 04:34:04 21° SW 04:36:42 10° SSE visible
16 May -3.8 22:52:31 10° WSW 22:55:53 86° NNW 22:59:16 10° ENE visible
17 May -2.6 00:29:42 10° WNW 00:32:57 43° N 00:36:12 10° ENE visible
17 May -3.4 02:06:43 10° WNW 02:10:04 64° NNE 02:13:26 10° E visible
17 May -3.1 03:43:42 10° W 03:46:45 32° SW 03:49:48 10° SSE visible
17 May -3.8 22:05:06 10° SW 22:08:27 68° SSE 22:11:48 10° ENE visible
17 May -2.7 23:42:08 10° W 23:45:24 46° N 23:48:40 10° ENE visible
18 May -3.0 01:19:15 10° WNW 01:22:33 52° NNE 01:22:53 49° NE visible
18 May -3.0 22:54:33 10° W 22:57:51 53° NNW 23:01:11 10° ENE visible
19 May -2.7 00:31:45 10° WNW 00:35:01 46° N 00:36:27 27° ENE visible
19 May -1.4 02:08:37 10° WNW 02:09:22 16° WNW 02:09:22 16° WNW visible
19 May -3.3 22:06:59 10° W 22:10:20 66° NNW 22:13:41 10° ENE visible
19 May -2.6 23:44:13 10° WNW 23:47:28 43° N 23:50:16 13° ENE visible
20 May -2.5 01:21:09 10° WNW 01:23:12 34° WNW 01:23:12 34° WNW visible
20 May -2.5 22:56:39 10° WNW 22:59:53 43° N 23:03:09 10° ENE visible
21 May -3.4 00:33:40 10° WNW 00:37:02 64° NNE 00:37:06 64° NNE visible
21 May -2.6 22:09:04 10° W 22:12:20 46° N 22:15:36 10° ENE visible
21 May -3.0 23:46:12 10° WNW 23:49:29 52° NNE 23:51:03 27° ENE visible
22 May -1.5 01:23:03 10° WNW 01:23:59 17° W 01:23:59 17° W visible
22 May -2.7 22:58:41 10° WNW 23:01:57 46° N 23:05:02 11° E visible
23 May -2.9 00:35:32 10° WNW 00:37:58 43° W 00:37:58 43° W visible
23 May -2.6 22:11:08 10° WNW 22:14:22 43° N 22:17:37 10° ENE visible
23 May -3.8 23:48:03 10° WNW 23:51:26 84° NNE 23:51:59 60° ESE visible
24 May -3.4 23:00:34 10° WNW 23:03:55 64° NNE 23:06:01 21° E visible
25 May -1.8 00:37:33 10° W 00:38:56 20° W 00:38:56 20° W visible
25 May -3.0 22:13:04 10° WNW 22:16:22 52° NNE 22:19:41 10° E visible
25 May -3.3 23:49:57 10° WNW 23:53:00 46° SW 23:53:00 46° SW visible
